Weather History for Brooksville, FL

Change the Weather History Date:

Thursday, April 25, 2013

  Actual Average Record
Temperature  
Mean Temperature 70 °F -  
Max Temperature 86 °F 80 °F 91 °F (2011)
Min Temperature 57 °F 55 °F 43 °F (1998)
Cooling Degree Days 6    
Growing Degree Days 20 (Base 50)    
Moisture  
Dew Point 61 °F    
Average Humidity 71    
Maximum Humidity 97    
Minimum Humidity 46    
Precipitation  
Precipitation 0.00 in - - ()
Sea Level Pressure  
Sea Level Pressure 30.18 in    
Wind  
Wind Speed 4 mph (WNW)    
Max Wind Speed 13 mph    
Max Gust Speed 16 mph    
Visibility 10 miles    
Events      
Averages and records for this station are not official NWS values.
T = Trace of Precipitation, MM = Missing Value Source: NWS Daily Summary

Daily Weather History Graph

Daily Weather History Graph

Search for Another Location

Airport:

Trip Planner

Search our weather history database for the weather conditions in past years. The results will help you decide how hot, cold, wet, or windy it might be!

Date:

Astronomy

Apr. 25, 2013 Rise Set
Actual Time 6:54 AM EDT 8:01 PM EDT
Civil Twilight 6:29 AM EDT 8:26 PM EDT
Nautical Twilight 6:00 AM EDT 8:55 PM EDT
Astronomical Twilight 5:30 AM EDT 9:25 PM EDT
Moon 8:10 PM EDT (4/25) 6:36 AM EDT (4/25)
Length of Visible Light 13h 56m
Length of Day
13h 07m
Full, 100% of the Moon is Illuminated
Apr 25
Full
Apr 25
Full
May 2
Last Quarter
May 9
New
May 18
First Quarter

Hourly Weather History & Observations

Time (EDT) Temp. Heat Index Dew Point Humidity Pressure Visibility Wind Dir Wind Speed Gust Speed Precip Events Conditions
12:53 AM 64.0 °F - 61.0 °F 90% 30.14 in 10.0 mi NE 3.5 mph - N/A   Clear
1:53 AM 62.1 °F - 60.1 °F 93% 30.14 in 10.0 mi Calm Calm - N/A   Clear
2:53 AM 61.0 °F - 59.0 °F 93% 30.14 in 10.0 mi Calm Calm - N/A   Clear
3:53 AM 62.1 °F - 59.0 °F 90% 30.14 in 10.0 mi Calm Calm - N/A   Clear
4:53 AM 57.9 °F - 57.0 °F 97% 30.14 in 10.0 mi Calm Calm - N/A   Clear
5:53 AM 59.0 °F - 57.9 °F 96% 30.15 in 9.0 mi Calm Calm - N/A   Clear
6:53 AM 59.0 °F - 57.9 °F 96% 30.16 in 8.0 mi Calm Calm - N/A   Clear
7:53 AM 64.0 °F - 62.1 °F 93% 30.19 in 8.0 mi Calm Calm - N/A   Clear
8:53 AM 71.1 °F - 64.9 °F 81% 30.19 in 10.0 mi Calm Calm - N/A   Clear
9:53 AM 75.9 °F - 64.0 °F 67% 30.21 in 10.0 mi SSW 4.6 mph - N/A   Clear
10:53 AM 78.1 °F - 62.1 °F 58% 30.22 in 10.0 mi WSW 3.5 mph - N/A   Clear
11:53 AM 82.9 °F 84.0 °F 63.0 °F 51% 30.22 in 10.0 mi Calm Calm - N/A   Partly Cloudy
12:53 PM 84.0 °F 84.5 °F 62.1 °F 47% 30.21 in 10.0 mi West 9.2 mph - N/A   Scattered Clouds
1:53 PM 84.0 °F 84.5 °F 62.1 °F 47% 30.20 in 10.0 mi WNW 10.4 mph - N/A   Scattered Clouds
2:53 PM 84.9 °F 85.4 °F 62.1 °F 46% 30.19 in 10.0 mi West 10.4 mph 16.1 mph N/A   Clear
3:53 PM 84.9 °F 85.4 °F 62.1 °F 46% 30.17 in 10.0 mi WNW 11.5 mph - N/A   Clear
4:53 PM 84.0 °F 84.5 °F 62.1 °F 47% 30.16 in 10.0 mi West 12.7 mph - N/A   Clear
5:53 PM 82.0 °F 82.4 °F 60.1 °F 47% 30.17 in 10.0 mi WNW 11.5 mph - N/A   Clear
6:53 PM 80.1 °F 80.7 °F 59.0 °F 48% 30.17 in 10.0 mi WNW 11.5 mph - N/A   Clear
7:53 PM 75.9 °F - 60.1 °F 58% 30.18 in 10.0 mi NNW 9.2 mph - N/A   Clear
8:53 PM 73.0 °F - 63.0 °F 71% 30.19 in 10.0 mi NW 6.9 mph - N/A   Clear
9:53 PM 73.0 °F - 64.9 °F 76% 30.21 in 10.0 mi NW 5.8 mph - N/A   Clear
10:53 PM 71.1 °F - 64.9 °F 81% 30.22 in 10.0 mi NW 4.6 mph - N/A   Clear
11:53 PM 69.1 °F - 64.9 °F 87% 30.22 in 10.0 mi East 3.5 mph - N/A   Clear